[[{"header":{"parameterUnit":"m.s-1","parameterCategory":2,"la1":30.2991,"la2":30.254,"lo1":-89.0895,"lo2":-89.0444,"dy":0.0017,"dx":0.0017,"nx":28,"ny":28,"refTime":"2024-03-12T09:00:00:Z","depth":"0","parameterNumber":2,"parameterNumberName":"U-component_of_CURRENTS"},"data":[0,0,0,0,0,0,0,0,0,0,0,0,0,0,0,0,0,0,0,0,0,0,0,0,0,0,0,0,0,0,0,0,0,0,0,0,0,0,0,0,0,0,0,0,0,0,0,0,0,0,0,0,0,0,0,0,0,0,-0.2875,-0.2878,0,-0.3056,-0.3057,-0.3058,-0.3076,-0.3075,-0.3074,-0.3072,-0.3007,-0.3007,-0.3006,0,0,0,0,0,0,0,0,0,0,0,0,0,-0.2528,-0.2534,-0.2875,-0.2878,-0.2881,-0.3055,-0.3057,-0.3059,-0.3076,-0.3075,-0.3073,-0.3072,-0.3007,-0.3007,-0.3006,0,0,0,0,0,0,0,0,0,0,0,0,0,-0.2684,-0.2536,-0.2874,-0.2916,-0.2922,-0.3055,-0.3057,-0.3059,-0.3077,-0.3075,-0.3073,-0.3071,-0.3008,-0.3007,-0.3006,-0.3037,0,0,-0.3003,-0.3003,0,0,0,0,0,0,0,0,-0.2675,-0.2695,-0.2907,-0.2913,-0.292,-0.3048,-0.2912,-0.3042,-0.3077,-0.301,-0.3072,-0.307,-0.3004,-0.3004,-0.3034,-0.3033,-0.3031,-0.3003,-0.3002,-0.3002,-0.3002,0,0,0,0,0,0,0,-0.2664,-0.2688,-0.2939,-0.291,-0.2919,-0.292,-0.294,-0.2937,-0.3005,-0.3016,-0.3019,-0.3052,-0.3005,-0.3036,-0.3032,-0.303,-0.3003,-0.3002,-0.3002,-0.3001,-0.3052,-0.3054,0,0,0,0,0,0,-0.2661,-0.2679,-0.2933,-0.2945,-0.2799,-0.2929,-0.295,-0.3003,-0.301,-0.3014,-0.3053,-0.3052,-0.3038,-0.3034,-0.303,-0.3086,-0.3002,-0.3001,-0.3001,-0.305,-0.3053,-0.3055,0,0,0,0,0,0,-0.2653,-0.2683,-0.2926,-0.2819,-0.2852,-0.2937,-0.2996,-0.3007,-0.3042,-0.3043,-0.3039,-0.3077,-0.3036,-0.3031,-0.3049,-0.3082,-0.3001,-0.3,-0.3048,-0.3051,-0.3054,-0.3184,0,0,0,0,0,0,-0.2643,-0.2679,-0.2709,-0.2821,-0.2858,-0.3027,-0.2999,-0.3013,-0.3069,-0.3068,-0.3062,-0.3055,-0.3035,-0.3051,-0.3048,-0.3079,-0.2999,-0.3046,-0.305,-0.3053,-0.3178,-0.3191,-0.3203,0,0,0,0,0,-0.263,-0.2699,-0.271,-0.274,-0.2899,-0.3031,-0.305,-0.3097,-0.3071,-0.3114,-0.3102,-0.3055,-0.307,-0.3053,-0.3049,-0.308,-0.3044,-0.3048,-0.3053,-0.3172,-0.3189,-0.3203,0,0,0,0,0,0,-0.2557,-0.2712,-0.2724,-0.2833,-0.2927,-0.3037,-0.308,-0.3106,-0.3136,-0.3118,-0.3089,-0.3084,-0.311,-0.308,-0.306,-0.3105,-0.3046,-0.3049,-0.3137,-0.3153,-0.3165,-0.3156,-0.2998,0,0,0,0,0,-0.2558,-0.2652,-0.2778,-0.286,-0.2905,-0.2984,-0.3037,-0.308,-0.3129,-0.3142,-0.3138,-0.3123,-0.3129,-0.3127,-0.3126,-0.3156,-0.311,-0.3169,-0.3182,-0.3193,-0.3183,-0.3171,-0.3181,-0.3069,-0.3069,-0.3069,0,0,-0.2543,-0.2647,-0.2691,-0.285,-0.2913,-0.3014,-0.301,-0.3109,-0.318,-0.3125,-0.3186,-0.3169,-0.3147,-0.3187,-0.3193,-0.3163,-0.3203,-0.3199,-0.3208,-0.3192,-0.3176,-0.3187,-0.3197,-0.3072,-0.3071,-0.3071,0,0,-0.258,-0.2657,-0.2743,-0.2835,-0.2965,-0.3036,-0.3066,-0.3179,-0.3209,-0.3285,-0.3251,-0.3257,-0.3276,-0.3272,-0.3268,-0.3347,-0.3272,-0.3341,-0.3398,-0.3388,-0.3397,-0.3404,-0.3366,-0.3368,-0.3346,-0.3347,-0.3347,0,-0.2539,-0.2678,-0.2783,-0.2891,-0.2954,-0.3046,-0.3127,-0.321,-0.3311,-0.3324,-0.3315,-0.334,-0.332,-0.3354,-0.3383,-0.3375,-0.3343,-0.3346,-0.3405,-0.341,-0.3415,-0.3374,-0.3375,-0.3354,-0.3353,-0.3352,-0.3351,0,-0.2641,-0.2745,-0.2803,-0.2967,-0.3058,-0.3148,-0.3273,-0.3348,-0.3383,-0.3437,-0.3479,-0.3476,-0.3472,-0.3484,-0.3459,-0.3488,-0.3445,-0.3425,-0.3366,-0.3435,-0.3387,-0.3386,-0.3363,-0.3361,-0.3359,-0.3357,0,0,-0.2525,-0.2812,-0.2814,-0.2886,-0.3091,-0.3162,-0.3305,-0.3425,-0.346,-0.3561,-0.3588,-0.3632,-0.3602,-0.3594,-0.3567,-0.357,-0.3583,-0.3515,-0.3511,-0.3476,-0.3539,-0.3271,-0.3244,-0.3575,-0.3575,-0.3576,-0.3493,0,-0.2537,-0.2716,-0.2871,-0.3009,-0.3097,-0.3237,-0.3339,-0.346,-0.3539,-0.3598,-0.3635,-0.3642,-0.3658,-0.3621,-0.365,-0.3584,-0.3584,-0.3605,-0.3476,-0.3471,-0.3225,-0.3235,-0.3064,-0.2954,-0.3491,-0.3491,-0.3491,0,-0.2545,-0.2673,-0.2799,-0.3001,-0.3039,-0.3133,-0.3255,-0.3367,-0.3508,-0.355,-0.3622,-0.3647,-0.3682,-0.3662,-0.3652,-0.3663,-0.3609,-0.3574,-0.3569,-0.3265,-0.32,-0.297,-0.2931,-0.2921,-0.3488,-0.3488,-0.3488,0,-0.2359,-0.26,-0.2679,-0.2751,-0.3004,-0.305,-0.3157,-0.3312,-0.3348,-0.3491,-0.348,-0.3609,-0.3554,-0.3608,-0.3539,-0.3602,-0.3475,-0.3552,-0.3275,-0.3256,-0.305,-0.3009,-0.2975,-0.3529,-0.3529,-0.3529,-0.3529,0,-0.2302,-0.2378,-0.2586,-0.2632,-0.2676,-0.2894,-0.2931,-0.3062,-0.3184,-0.3177,-0.3389,-0.3349,-0.3524,-0.3486,-0.3519,-0.3337,-0.3455,-0.3259,-0.3206,-0.3087,-0.3052,-0.2981,-0.3025,-0.3526,-0.3527,-0.3527,-0.3528,0,-0.2146,-0.2288,-0.2375,-0.2564,-0.26,-0.2613,-0.276,-0.2784,-0.2922,-0.2915,-0.2937,-0.3099,-0.3058,-0.3166,-0.3174,-0.3177,-0.3029,-0.3013,-0.2834,-0.2759,-0.253,-0.2587,-0.2425,-0.2369,-0.277,-0.2763,-0.2757,0,-0.2153,-0.2161,-0.2236,-0.2226,-0.2313,-0.2373,-0.2398,-0.2596,-0.2616,-0.2711,-0.2657,-0.2665,-0.2628,-0.256,-0.258,-0.2575,-0.266,-0.2394,-0.2488,-0.2449,-0.2481,-0.2543,-0.2518,-0.2301,-0.2291,-0.2284,-0.2278,0,-0.2125,-0.2071,-0.2098,-0.2033,-0.2031,-0.2056,-0.2113,-0.2092,-0.2277,-0.2262,-0.2218,-0.2208,-0.2131,-0.2056,-0.2018,-0.2029,-0.2311,-0.2227,-0.2266,-0.2141,-0.2132,-0.2073,-0.2427,-0.2209,-0.2216,-0.2221,-0.2225,-0.2228,-0.2052,-0.1995,-0.1934,-0.187,-0.1823,-0.1769,-0.1744,-0.1795,-0.1778,-0.1773,-0.1803,-0.1731,-0.1695,-0.163,-0.1609,-0.1538,-0.1722,-0.1602,-0.1687,-0.1765,-0.1653,-0.1798,-0.1457,-0.1459,-0.1461,-0.1463,-0.1465,0,-0.2008,-0.1915,-0.1816,-0.171,-0.1575,-0.1615,-0.1575,-0.1539,-0.1461,-0.1442,-0.1384,-0.1282,-0.1168,-0.1203,-0.113,-0.1084,-0.1169,-0.1111,-0.1261,-0.1278,-0.1461,-0.1379,-0.0906,-0.0906,-0.0906,-0.0906,-0.0906,-0.0906,-0.1961,-0.1845,-0.1762,-0.1525,-0.1423,-0.127,-0.1218,-0.1149,-0.1123,-0.1005,-0.0958,-0.0942,-0.0963,-0.1001,-0.0937,-0.0902,-0.0996,-0.0876,-0.1008,-0.1247,-0.1305,-0.1361,-0.1296,-0.0813,-0.0813,-0.0778,-0.0777,-0.0777]},{"header":{"parameterUnit":"m.s-1","parameterCategory":2,"la1":30.2991,"la2":30.254,"lo1":-89.0895,"lo2":-89.0444,"dy":0.0017,"dx":0.0017,"nx":28,"ny":28,"refTime":"2024-03-12T09:00:00:Z","depth":"0","parameterNumber":3,"parameterNumberName":"V-component_of_CURRENTS"},"data":[0,0,0,0,0,0,0,0,0,0,0,0,0,0,0,0,0,0,0,0,0,0,0,0,0,0,0,0,0,0,0,0,0,0,0,0,0,0,0,0,0,0,0,0,0,0,0,0,0,0,0,0,0,0,0,0,0,0,0.0084,0.0086,0,0.0249,0.0251,0.0253,0.0328,0.0327,0.0327,0.0326,0.0358,0.0359,0.036,0,0,0,0,0,0,0,0,0,0,0,0,0,-0.0013,-0.0013,0.0084,0.0086,0.0088,0.0248,0.0251,0.0254,0.0328,0.0327,0.0327,0.0326,0.0357,0.0359,0.036,0,0,0,0,0,0,0,0,0,0,0,0,0,0.008,-0.0012,0.0084,0.0142,0.0149,0.0248,0.0251,0.0254,0.0328,0.0327,0.0326,0.0326,0.0357,0.0358,0.036,0.0384,0,0,0.0366,0.0367,0,0,0,0,0,0,0,0,0.0074,0.0084,0.0132,0.0138,0.0146,0.0265,0.0228,0.029,0.0328,0.0263,0.0326,0.0326,0.0313,0.0318,0.0356,0.0385,0.0387,0.0366,0.0367,0.0368,0.0368,0,0,0,0,0,0,0,0.0068,0.0078,0.0152,0.0134,0.0142,0.0212,0.0224,0.0242,0.0289,0.0268,0.0273,0.0288,0.0316,0.0355,0.0357,0.0387,0.0366,0.0368,0.0369,0.0369,0.0438,0.0438,0,0,0,0,0,0,0.0035,0.0071,0.0147,0.0157,0.0105,0.0214,0.0227,0.0229,0.0292,0.0301,0.0288,0.0291,0.0352,0.0355,0.0358,0.0389,0.0368,0.037,0.0371,0.0437,0.0438,0.0438,0,0,0,0,0,0,0.0032,0.004,0.014,0.0117,0.0134,0.0215,0.0218,0.0233,0.0269,0.0308,0.0315,0.0308,0.0351,0.0356,0.0386,0.039,0.037,0.0372,0.0436,0.0437,0.0438,0.0449,0,0,0,0,0,0,0.0028,0.0037,0.0028,0.0113,0.0134,0.0194,0.0219,0.0236,0.0278,0.0283,0.0327,0.033,0.0351,0.0384,0.0388,0.0392,0.0374,0.0435,0.0437,0.0438,0.0448,0.0451,0.0453,0,0,0,0,0,0.0024,0.0013,0.0027,0.0036,0.0118,0.0194,0.0212,0.027,0.0279,0.0299,0.0335,0.0328,0.0394,0.0386,0.0391,0.0396,0.0434,0.0436,0.0438,0.0447,0.045,0.0453,0,0,0,0,0,0,-0.0033,0.0022,0.0038,0.0043,0.011,0.0205,0.0222,0.0266,0.0316,0.0312,0.0346,0.0353,0.0379,0.0387,0.0377,0.0419,0.041,0.0412,0.0415,0.0418,0.0421,0.0399,0.0375,0,0,0,0,0,-0.0053,-0.0048,0.0026,0.0032,0.0055,0.0138,0.0174,0.0219,0.0276,0.0299,0.0335,0.0364,0.0392,0.0404,0.043,0.0455,0.0462,0.0458,0.0461,0.0463,0.045,0.0473,0.0476,0.0444,0.0444,0.0444,0,0,-0.0072,-0.0043,-0.0039,0.0021,0.007,0.0115,0.0158,0.021,0.0255,0.0289,0.0344,0.0373,0.0401,0.0437,0.0448,0.0443,0.0481,0.0465,0.0466,0.0452,0.0475,0.0478,0.0481,0.0445,0.0445,0.0444,0,0,-0.0108,-0.0086,-0.0095,-0.0042,0.0026,0.0092,0.0102,0.0197,0.024,0.0303,0.0334,0.0369,0.0418,0.0449,0.0466,0.0494,0.0493,0.0494,0.049,0.0514,0.0516,0.0519,0.0551,0.0556,0.0496,0.0496,0.0496,0,-0.0139,-0.0139,-0.008,-0.0064,-0.0028,0.0075,0.0093,0.0168,0.0268,0.0294,0.0312,0.0399,0.0426,0.0465,0.0482,0.0498,0.051,0.0478,0.0516,0.0518,0.052,0.0553,0.0558,0.0496,0.0496,0.0496,0.0496,0,-0.0173,-0.0166,-0.0163,-0.0112,-0.0054,-0.0021,0.0086,0.0148,0.0211,0.0279,0.0337,0.0398,0.0439,0.0462,0.0484,0.0512,0.0517,0.0517,0.0506,0.0524,0.0558,0.0563,0.0497,0.0497,0.0497,0.0497,0,0,-0.0255,-0.0207,-0.0203,-0.0199,-0.0083,-0.0044,0.0042,0.0134,0.0165,0.0275,0.0312,0.0392,0.0421,0.0441,0.0477,0.0509,0.0553,0.0516,0.0517,0.0543,0.0609,0.0587,0.0591,0.0556,0.0556,0.0557,0.0634,0,-0.0304,-0.0323,-0.0256,-0.0233,-0.0229,-0.0103,-0.0038,0.0066,0.0157,0.0228,0.0318,0.036,0.0416,0.0422,0.0474,0.0527,0.0563,0.0532,0.0591,0.0593,0.0567,0.0595,0.0602,0.0668,0.0639,0.064,0.0641,0,-0.0351,-0.0362,-0.0382,-0.0325,-0.0311,-0.0268,-0.0164,-0.009,0.0053,0.0115,0.0203,0.0279,0.0365,0.0393,0.0514,0.049,0.0543,0.0592,0.0596,0.0567,0.0579,0.0642,0.0679,0.0791,0.0649,0.0648,0.0647,0,-0.0458,-0.0435,-0.047,-0.0448,-0.0364,-0.0345,-0.0282,-0.0145,-0.0094,0.0032,0.0067,0.0203,0.0248,0.0354,0.0485,0.0492,0.0605,0.0626,0.0663,0.0663,0.0675,0.0674,0.0817,0.0689,0.0688,0.0688,0.0688,0,-0.0532,-0.0546,-0.0538,-0.0554,-0.057,-0.0469,-0.0447,-0.0354,-0.0243,-0.0191,-0.0025,0.0029,0.0234,0.0345,0.0464,0.0583,0.0592,0.0662,0.0677,0.0681,0.068,0.0779,0.0819,0.0691,0.0691,0.069,0.0689,0,-0.0611,-0.0616,-0.0651,-0.0631,-0.0625,-0.0634,-0.0554,-0.0524,-0.0421,-0.0347,-0.0315,-0.0107,0.0044,0.0244,0.042,0.053,0.0709,0.0683,0.068,0.0693,0.0827,0.0865,0.096,0.1018,0.075,0.075,0.075,0,-0.0622,-0.0674,-0.0727,-0.0752,-0.0746,-0.0745,-0.0723,-0.0622,-0.0574,-0.043,-0.0399,-0.0238,-0.0081,0.0186,0.04,0.0614,0.0696,0.0718,0.0729,0.0834,0.089,0.0903,0.0946,0.077,0.077,0.0771,0.0771,0,-0.064,-0.0699,-0.0751,-0.0835,-0.0855,-0.0856,-0.0823,-0.0816,-0.0682,-0.0611,-0.0477,-0.0353,-0.0084,0.0192,0.0447,0.0564,0.0783,0.0721,0.0842,0.0919,0.0932,0.0994,0.0728,0.0771,0.0771,0.0771,0.0771,0.0771,-0.0617,-0.0706,-0.0808,-0.0878,-0.0916,-0.0928,-0.0918,-0.086,-0.0794,-0.0633,-0.0535,-0.0285,0.0055,0.0434,0.0555,0.0811,0.0786,0.0902,0.0943,0.095,0.0989,0.0712,0.0756,0.0756,0.0756,0.0755,0.0755,0,-0.0537,-0.0702,-0.0807,-0.0904,-0.0954,-0.0958,-0.0938,-0.0891,-0.0805,-0.0621,-0.0461,0.001,0.0311,0.0616,0.0944,0.1062,0.1099,0.1115,0.117,0.1209,0.0988,0.0973,0.1051,0.1051,0.1051,0.1051,0.1051,0.1051,-0.0499,-0.0647,-0.077,-0.0891,-0.0953,-0.0963,-0.0947,-0.0871,-0.0725,-0.0396,-0.0067,0.0215,0.0653,0.1035,0.1308,0.1321,0.1448,0.1389,0.1471,0.1359,0.1344,0.1329,0.1328,0.1479,0.148,0.1687,0.1689,0.1691]}],[{"header":{"parameterUnit":"m.s-1","parameterCategory":2,"la1":30.2991,"la2":30.254,"lo1":-89.0895,"lo2":-89.0444,"dy":0.0017,"dx":0.0017,"nx":28,"ny":28,"refTime":"2024-03-12T09:00:00:Z","depth":"2","parameterNumber":2,"parameterNumberName":"U-component_of_CURRENTS"},"data":[0,0,0,0,0,0,0,0,0,0,0,0,0,0,0,0,0,0,0,0,0,0,0,0,0,0,0,0,0,0,0,0,0,0,0,0,0,0,0,0,0,0,0,0,0,0,0,0,0,0,0,0,0,0,0,0,0,0,-0.1856,-0.1856,0,-0.19,-0.1901,-0.1903,-0.1931,-0.193,-0.193,-0.1929,-0.1801,-0.1798,-0.1795,0,0,0,0,0,0,0,0,0,0,0,0,0,-0.1816,-0.1817,-0.1856,-0.1856,-0.1855,-0.19,-0.1901,-0.1903,-0.1931,-0.193,-0.1929,-0.1929,-0.1802,-0.1798,-0.1795,0,0,0,0,0,0,0,0,0,0,0,0,0,-0.1852,-0.1817,-0.1856,-0.1868,-0.1869,-0.19,-0.1902,-0.1903,-0.1931,-0.193,-0.1929,-0.1928,-0.1803,-0.1799,-0.1794,-0.1788,0,0,-0.1781,-0.178,0,0,0,0,0,0,0,0,-0.185,-0.1855,-0.1867,-0.1867,-0.1868,-0.1901,-0.184,-0.1853,-0.1931,-0.1917,-0.1929,-0.1928,-0.1813,-0.1808,-0.1834,-0.1782,-0.1776,-0.1781,-0.1778,-0.1777,-0.1775,0,0,0,0,0,0,0,-0.1848,-0.1853,-0.1882,-0.1866,-0.1867,-0.1878,-0.1883,-0.1844,-0.1874,-0.1918,-0.1918,-0.1909,-0.1813,-0.1838,-0.183,-0.1774,-0.1781,-0.1777,-0.1775,-0.1773,-0.177,-0.1772,0,0,0,0,0,0,-0.1825,-0.1851,-0.1881,-0.1883,-0.1847,-0.1878,-0.1884,-0.1899,-0.1878,-0.1873,-0.191,-0.191,-0.1846,-0.1835,-0.1825,-0.1886,-0.1777,-0.1773,-0.177,-0.1767,-0.177,-0.1773,0,0,0,0,0,0,-0.1824,-0.1828,-0.1879,-0.1859,-0.1865,-0.1879,-0.1896,-0.19,-0.1947,-0.1872,-0.1865,-0.1953,-0.1844,-0.1831,-0.1821,-0.1878,-0.1771,-0.1767,-0.1765,-0.1768,-0.1772,-0.1961,0,0,0,0,0,0,-0.1823,-0.1828,-0.1837,-0.1859,-0.1865,-0.1891,-0.1896,-0.1901,-0.1937,-0.1939,-0.1906,-0.1892,-0.1843,-0.1828,-0.1817,-0.187,-0.1764,-0.1761,-0.1766,-0.1771,-0.1951,-0.197,-0.1987,0,0,0,0,0,-0.1822,-0.1855,-0.1839,-0.1841,-0.1876,-0.189,-0.1896,-0.1908,-0.194,-0.1953,-0.1954,-0.1895,-0.1849,-0.1827,-0.1813,-0.1866,-0.1759,-0.1765,-0.177,-0.1943,-0.1967,-0.1986,0,0,0,0,0,0,-0.185,-0.186,-0.1843,-0.1877,-0.1869,-0.1891,-0.1917,-0.1932,-0.1954,-0.1969,-0.192,-0.1906,-0.1917,-0.1865,-0.1842,-0.1879,-0.1797,-0.18,-0.1933,-0.1954,-0.1971,-0.1917,-0.176,0,0,0,0,0,-0.1852,-0.1871,-0.1868,-0.1885,-0.1898,-0.1916,-0.193,-0.1938,-0.1952,-0.1966,-0.195,-0.1937,-0.1929,-0.1921,-0.1888,-0.1907,-0.1859,-0.1933,-0.1951,-0.1966,-0.1913,-0.1972,-0.1991,-0.1791,-0.1791,-0.1791,0,0,-0.1855,-0.1868,-0.1872,-0.1889,-0.1904,-0.1933,-0.1927,-0.1962,-0.1986,-0.1942,-0.1993,-0.1987,-0.1945,-0.1972,-0.1973,-0.1937,-0.1998,-0.1973,-0.1987,-0.1923,-0.198,-0.1999,-0.2017,-0.1795,-0.1794,-0.1794,0,0,-0.1881,-0.1899,-0.1923,-0.1943,-0.1958,-0.1963,-0.1979,-0.2017,-0.2035,-0.2076,-0.2061,-0.2095,-0.2081,-0.2075,-0.2069,-0.216,-0.2085,-0.2159,-0.221,-0.2273,-0.2289,-0.2303,-0.2272,-0.2281,-0.2177,-0.2177,-0.2178,0,-0.188,-0.1914,-0.1926,-0.1974,-0.1988,-0.1987,-0.2021,-0.2047,-0.2073,-0.2077,-0.2103,-0.2137,-0.2132,-0.2151,-0.2202,-0.22,-0.2183,-0.2144,-0.2298,-0.231,-0.2321,-0.2285,-0.2293,-0.2187,-0.2186,-0.2185,-0.2184,0,-0.1926,-0.1962,-0.1993,-0.2036,-0.2057,-0.2088,-0.2108,-0.2153,-0.2192,-0.2184,-0.2222,-0.2247,-0.2256,-0.2296,-0.2283,-0.2354,-0.2298,-0.2315,-0.2248,-0.2353,-0.2307,-0.2313,-0.2201,-0.2198,-0.2195,-0.2192,0,0,-0.189,-0.1995,-0.2003,-0.2026,-0.2096,-0.2105,-0.2182,-0.2191,-0.2238,-0.2268,-0.2325,-0.2358,-0.2357,-0.2347,-0.2358,-0.242,-0.2531,-0.2409,-0.2408,-0.2379,-0.2603,-0.2398,-0.2382,-0.2597,-0.2599,-0.2601,-0.2541,0,-0.1902,-0.1981,-0.2036,-0.2091,-0.2127,-0.2185,-0.2245,-0.2267,-0.2306,-0.2366,-0.2373,-0.2409,-0.2376,-0.2431,-0.2484,-0.2521,-0.2551,-0.2539,-0.2496,-0.2492,-0.2303,-0.2385,-0.2222,-0.2141,-0.2545,-0.2546,-0.2547,0,-0.1913,-0.1962,-0.2024,-0.2112,-0.2136,-0.2175,-0.2263,-0.231,-0.2378,-0.2426,-0.2453,-0.2458,-0.2506,-0.2525,-0.2559,-0.2557,-0.2568,-0.2591,-0.2591,-0.2316,-0.2296,-0.2098,-0.2133,-0.2553,-0.2553,-0.2552,-0.2552,0,-0.1837,-0.1943,-0.1975,-0.2014,-0.2127,-0.2172,-0.2219,-0.2304,-0.2325,-0.2443,-0.2475,-0.2525,-0.2541,-0.2603,-0.2567,-0.2617,-0.259,-0.2685,-0.2473,-0.2457,-0.2253,-0.2213,-0.2705,-0.2705,-0.2706,-0.2706,-0.2706,0,-0.1817,-0.1842,-0.1944,-0.1969,-0.2008,-0.2114,-0.2163,-0.2253,-0.2351,-0.2336,-0.2453,-0.2446,-0.2569,-0.2542,-0.258,-0.2463,-0.2583,-0.2443,-0.2435,-0.231,-0.2278,-0.2577,-0.2563,-0.2703,-0.2704,-0.2704,-0.2705,0,-0.1722,-0.1801,-0.1837,-0.1947,-0.1971,-0.1992,-0.208,-0.2112,-0.2232,-0.2249,-0.2277,-0.2363,-0.2346,-0.2366,-0.2442,-0.2402,-0.2394,-0.231,-0.2085,-0.2049,-0.2232,-0.2229,-0.2166,-0.2158,-0.2152,-0.2146,-0.2142,0,-0.1679,-0.1692,-0.1773,-0.1777,-0.1817,-0.1865,-0.1891,-0.2027,-0.2044,-0.214,-0.2114,-0.2129,-0.2078,-0.2038,-0.2026,-0.2,-0.2135,-0.1819,-0.1901,-0.2181,-0.2181,-0.2188,-0.2193,-0.1721,-0.1713,-0.1707,-0.1702,0,-0.1578,-0.1607,-0.163,-0.1645,-0.1659,-0.1677,-0.1717,-0.1721,-0.1853,-0.1863,-0.1846,-0.1833,-0.1767,-0.1663,-0.159,-0.1585,-0.1839,-0.1688,-0.2072,-0.1857,-0.1751,-0.1754,-0.1777,-0.1647,-0.1652,-0.1656,-0.1659,-0.1662,-0.1466,-0.1456,-0.1488,-0.1487,-0.1501,-0.149,-0.1469,-0.1503,-0.1502,-0.1505,-0.1545,-0.1467,-0.1485,-0.1304,-0.1238,-0.1227,-0.1402,-0.1423,-0.1449,-0.148,-0.1413,-0.1299,-0.1094,-0.1096,-0.1098,-0.11,-0.1101,0,-0.1337,-0.1339,-0.1323,-0.1328,-0.1296,-0.1353,-0.1344,-0.1308,-0.1251,-0.1239,-0.1195,-0.1048,-0.0944,-0.0982,-0.0863,-0.0858,-0.094,-0.0855,-0.0981,-0.1033,-0.108,-0.1002,-0.0569,-0.0567,-0.0566,-0.0565,0,0,-0.1258,-0.1204,-0.1204,-0.1123,-0.1128,-0.1055,-0.1029,-0.098,-0.0953,-0.0862,-0.0803,-0.0843,-0.0892,-0.0703,-0.0682,-0.0598,-0.0819,-0.0571,-0.0991,-0.1186,-0.1231,-0.1387,-0.1318,0,0,0,0,0]},{"header":{"parameterUnit":"m.s-1","parameterCategory":2,"la1":30.2991,"la2":30.254,"lo1":-89.0895,"lo2":-89.0444,"dy":0.0017,"dx":0.0017,"nx":28,"ny":28,"refTime":"2024-03-12T09:00:00:Z","depth":"2","parameterNumber":3,"parameterNumberName":"V-component_of_CURRENTS"},"data":[0,0,0,0,0,0,0,0,0,0,0,0,0,0,0,0,0,0,0,0,0,0,0,0,0,0,0,0,0,0,0,0,0,0,0,0,0,0,0,0,0,0,0,0,0,0,0,0,0,0,0,0,0,0,0,0,0,0,-0.0127,-0.0127,0,-0.005,-0.0049,-0.0047,-0.0012,-0.0012,-0.0013,-0.0014,0.0067,0.007,0.0073,0,0,0,0,0,0,0,0,0,0,0,0,0,-0.0142,-0.0142,-0.0127,-0.0127,-0.0126,-0.005,-0.0049,-0.0047,-0.0012,-0.0012,-0.0013,-0.0014,0.0066,0.007,0.0073,0,0,0,0,0,0,0,0,0,0,0,0,0,-0.0102,-0.0142,-0.0127,-0.0104,-0.0101,-0.0051,-0.0049,-0.0047,-0.0012,-0.0012,-0.0013,-0.0014,0.0065,0.0069,0.0073,0.0116,0,0,0.0086,0.0087,0,0,0,0,0,0,0,0,-0.0104,-0.0101,-0.0107,-0.0105,-0.0102,-0.0046,-0.0024,0.0006,-0.0011,-0.004,-0.0014,-0.0015,0.0027,0.0034,0.0058,0.0119,0.0123,0.0086,0.0088,0.009,0.0091,0,0,0,0,0,0,0,-0.0107,-0.0103,-0.0091,-0.0107,-0.0104,-0.0062,-0.0058,-0.0017,0.0002,-0.0037,-0.0036,-0.0036,0.0029,0.0054,0.006,0.0124,0.0086,0.0089,0.0092,0.0093,0.0238,0.024,0,0,0,0,0,0,-0.0133,-0.0107,-0.0093,-0.0089,-0.0112,-0.0062,-0.0057,-0.0059,0.0001,0.0008,-0.0035,-0.0035,0.0048,0.0055,0.0063,0.0126,0.009,0.0094,0.0096,0.0237,0.0239,0.024,0,0,0,0,0,0,-0.0133,-0.0132,-0.0097,-0.01,-0.0094,-0.0062,-0.0064,-0.0057,-0.004,0.0002,0.001,-0.0028,0.0047,0.0057,0.0102,0.0129,0.0096,0.0099,0.0235,0.0238,0.024,0.0246,0,0,0,0,0,0,-0.0134,-0.0133,-0.0143,-0.0102,-0.0095,-0.0087,-0.0063,-0.0055,-0.0041,-0.004,0.0011,0.0018,0.0047,0.0096,0.0106,0.0134,0.0102,0.0234,0.0236,0.0239,0.0244,0.0248,0.0251,0,0,0,0,0,-0.0135,-0.0152,-0.0144,-0.0142,-0.011,-0.0088,-0.008,-0.0056,-0.0041,-0.0041,0.0009,0.0016,0.012,0.0101,0.0112,0.0141,0.0232,0.0236,0.0239,0.0242,0.0247,0.0251,0,0,0,0,0,0,-0.0167,-0.0149,-0.0139,-0.0152,-0.0131,-0.0085,-0.0084,-0.0059,-0.0017,-0.0012,0.0034,0.0045,0.0093,0.0118,0.0095,0.0192,0.0178,0.0184,0.0177,0.0182,0.0186,0.0144,0.0106,0,0,0,0,0,-0.0179,-0.0186,-0.0159,-0.017,-0.0162,-0.012,-0.0107,-0.0087,-0.0047,-0.0029,0.0012,0.0065,0.0119,0.0147,0.0187,0.0243,0.0245,0.027,0.0274,0.0277,0.0252,0.031,0.0316,0.0251,0.0251,0.0251,0,0,-0.0194,-0.0187,-0.0191,-0.0177,-0.0154,-0.0143,-0.0113,-0.0099,-0.0082,-0.0026,0.0014,0.0071,0.0134,0.0195,0.022,0.0218,0.0294,0.0281,0.0283,0.0256,0.0314,0.032,0.0325,0.0253,0.0253,0.0252,0,0,-0.0233,-0.0221,-0.0241,-0.0222,-0.0201,-0.0168,-0.0168,-0.0121,-0.0095,-0.0044,0.0008,0.0083,0.0152,0.0218,0.0259,0.0309,0.0305,0.032,0.0316,0.0374,0.0379,0.0384,0.0376,0.038,0.0332,0.0332,0.0332,0,-0.0255,-0.0274,-0.0243,-0.025,-0.0238,-0.0183,-0.0189,-0.0147,-0.0088,-0.0066,-0.004,0.0098,0.0169,0.0252,0.0285,0.0318,0.0316,0.0294,0.0377,0.0382,0.0386,0.0377,0.0382,0.0332,0.0332,0.0332,0.0332,0,-0.0301,-0.0312,-0.032,-0.0307,-0.0285,-0.0282,-0.0224,-0.0189,-0.0139,-0.0098,-0.0018,0.0094,0.017,0.0229,0.0281,0.0356,0.033,0.0367,0.0359,0.0393,0.0381,0.0386,0.0333,0.0333,0.0333,0.0333,0,0,-0.0359,-0.0358,-0.036,-0.0368,-0.0315,-0.0305,-0.0261,-0.0218,-0.0193,-0.0109,-0.007,0.0079,0.0129,0.0178,0.0266,0.0344,0.0406,0.0367,0.037,0.0344,0.0472,0.0463,0.0466,0.0452,0.0453,0.0455,0.0443,0,-0.0408,-0.045,-0.042,-0.0434,-0.0444,-0.0369,-0.0335,-0.0279,-0.021,-0.0155,-0.0035,0.0035,0.011,0.017,0.0255,0.0373,0.0418,0.0401,0.0454,0.0454,0.0432,0.0473,0.0459,0.045,0.0447,0.0448,0.0449,0,-0.0461,-0.0482,-0.0522,-0.0506,-0.0501,-0.049,-0.0422,-0.0386,-0.0287,-0.0229,-0.0142,-0.0061,0.0067,0.0137,0.0299,0.0276,0.0356,0.0442,0.0444,0.043,0.0454,0.0422,0.0457,0.0455,0.0455,0.0454,0.0454,0,-0.0528,-0.0546,-0.0587,-0.058,-0.0549,-0.0542,-0.0512,-0.0421,-0.0386,-0.0284,-0.0241,-0.0113,-0.0026,0.0095,0.0265,0.0283,0.0422,0.0473,0.0517,0.0514,0.0509,0.0504,0.0558,0.0558,0.0558,0.0558,0.0558,0,-0.0594,-0.0621,-0.063,-0.0651,-0.0675,-0.062,-0.0611,-0.0552,-0.0466,-0.0425,-0.0302,-0.0228,-0.0026,0.0083,0.0219,0.0363,0.0375,0.05,0.0524,0.0509,0.0505,0.0519,0.0515,0.0558,0.0558,0.0558,0.0558,0,-0.0659,-0.0671,-0.0715,-0.0715,-0.0715,-0.073,-0.0686,-0.0664,-0.0581,-0.0516,-0.0486,-0.0316,-0.016,-0.0,0.0213,0.0307,0.0452,0.0489,0.0422,0.0439,0.0504,0.0501,0.0538,0.0538,0.0538,0.0538,0.0537,0,-0.0694,-0.0734,-0.0773,-0.0795,-0.0803,-0.0811,-0.08,-0.0728,-0.0689,-0.0558,-0.0527,-0.0375,-0.0233,0.0021,0.0221,0.0399,0.0431,0.0464,0.0526,0.0489,0.0509,0.0505,0.0502,0.0506,0.0506,0.0506,0.0506,0,-0.0754,-0.0778,-0.0814,-0.0863,-0.0883,-0.0892,-0.0875,-0.086,-0.0756,-0.0683,-0.0548,-0.0431,-0.0185,0.005,0.0254,0.0361,0.044,0.0464,0.0467,0.0517,0.0461,0.0479,0.0477,0.0503,0.0503,0.0504,0.0504,0.0504,-0.0789,-0.0829,-0.0878,-0.0916,-0.0939,-0.0947,-0.0944,-0.0891,-0.0826,-0.0677,-0.057,-0.0356,-0.016,0.0182,0.0313,0.0433,0.0455,0.0504,0.0505,0.0506,0.0508,0.0456,0.0493,0.0493,0.0493,0.0493,0.0493,0,-0.0839,-0.0875,-0.0914,-0.096,-0.0978,-0.0979,-0.0961,-0.092,-0.0833,-0.0665,-0.0506,-0.0253,-0.0006,0.0183,0.0385,0.0496,0.0498,0.0498,0.0497,0.0498,0.05,0.0502,0.0485,0.0485,0.0486,0.0486,0,0,-0.0866,-0.0919,-0.0934,-0.0973,-0.0992,-0.0994,-0.098,-0.0905,-0.0781,-0.0599,-0.0416,-0.019,0.0039,0.0183,0.0313,0.041,0.0418,0.0405,0.0401,0.0384,0.0384,0.0492,0.0495,0,0,0,0,0]}],[{"header":{"parameterUnit":"m.s-1","parameterCategory":2,"la1":30.2991,"la2":30.254,"lo1":-89.0895,"lo2":-89.0444,"dy":0.0017,"dx":0.0017,"nx":28,"ny":28,"refTime":"2024-03-12T09:00:00:Z","depth":"4","parameterNumber":2,"parameterNumberName":"U-component_of_CURRENTS"},"data":[0,0,0,0,0,0,0,0,0,0,0,0,0,0,0,0,0,0,0,0,0,0,0,0,0,0,0,0,0,0,0,0,0,0,0,0,0,0,0,0,0,0,0,0,0,0,0,0,0,0,0,0,0,0,0,0,0,0,-0.0862,-0.086,0,-0.0743,-0.0742,-0.0741,-0.0694,-0.0694,-0.0694,-0.0694,-0.0742,-0.0744,-0.0745,0,0,0,0,0,0,0,0,0,0,0,0,0,-0.1035,-0.1032,-0.0862,-0.086,-0.0858,-0.0743,-0.0742,-0.0741,-0.0694,-0.0694,-0.0694,-0.0694,-0.0742,-0.0744,-0.0745,0,0,0,0,0,0,0,0,0,0,0,0,0,-0.0947,-0.1032,-0.0862,-0.0817,-0.0811,-0.0743,-0.0742,-0.0741,-0.0694,-0.0694,-0.0694,-0.0694,-0.0741,-0.0743,-0.0746,-0.0765,0,0,-0.0752,-0.0753,0,0,0,0,0,0,0,0,-0.0953,-0.0942,-0.0825,-0.082,-0.0813,-0.0728,-0.082,-0.0755,-0.0694,-0.0745,-0.0694,-0.0693,-0.075,-0.0751,-0.0735,-0.0767,-0.0769,-0.0752,-0.0754,-0.0755,-0.0755,0,0,0,0,0,0,0,-0.0959,-0.0947,-0.082,-0.0823,-0.0816,-0.0797,-0.0785,-0.0807,-0.0758,-0.074,-0.0735,-0.0713,-0.0748,-0.0733,-0.0736,-0.077,-0.0752,-0.0754,-0.0756,-0.0757,-0.085,-0.0851,0,0,0,0,0,0,-0.0963,-0.0952,-0.0824,-0.0816,-0.0877,-0.0794,-0.0781,-0.076,-0.0754,-0.0749,-0.0713,-0.0711,-0.0729,-0.0734,-0.0738,-0.0812,-0.0755,-0.0757,-0.0758,-0.0849,-0.085,-0.0851,0,0,0,0,0,0,-0.0967,-0.0953,-0.0829,-0.0877,-0.0859,-0.0791,-0.0768,-0.0758,-0.0751,-0.073,-0.073,-0.0717,-0.0729,-0.0735,-0.0769,-0.0811,-0.0758,-0.076,-0.0847,-0.0849,-0.0851,-0.0927,0,0,0,0,0,0,-0.0973,-0.0955,-0.0961,-0.0877,-0.0857,-0.0811,-0.0768,-0.0756,-0.0734,-0.0731,-0.0734,-0.0737,-0.0729,-0.0766,-0.0771,-0.0814,-0.0762,-0.0846,-0.0848,-0.085,-0.0923,-0.0931,-0.0938,0,0,0,0,0,-0.0979,-0.0985,-0.0962,-0.0947,-0.0861,-0.0811,-0.0801,-0.0754,-0.0735,-0.0746,-0.0741,-0.0737,-0.0783,-0.0769,-0.0775,-0.0819,-0.0845,-0.0847,-0.085,-0.092,-0.093,-0.0938,0,0,0,0,0,0,-0.1064,-0.0978,-0.0951,-0.0931,-0.0885,-0.0802,-0.0804,-0.0766,-0.0766,-0.0769,-0.0754,-0.0758,-0.08,-0.0798,-0.0782,-0.0849,-0.0813,-0.0817,-0.0864,-0.0874,-0.0881,-0.0889,-0.0763,0,0,0,0,0,-0.1083,-0.1064,-0.0984,-0.0969,-0.0953,-0.0883,-0.0862,-0.0824,-0.0796,-0.0793,-0.0788,-0.0793,-0.0813,-0.0834,-0.0841,-0.0889,-0.0887,-0.0919,-0.0926,-0.0933,-0.0942,-0.0965,-0.0976,-0.086,-0.086,-0.086,0,0,-0.1108,-0.1059,-0.1048,-0.0987,-0.0949,-0.0931,-0.0873,-0.0843,-0.0838,-0.0805,-0.0823,-0.0819,-0.0827,-0.0868,-0.0889,-0.0878,-0.0967,-0.0936,-0.0942,-0.0948,-0.0969,-0.0981,-0.0991,-0.0861,-0.0861,-0.0861,0,0,-0.1139,-0.1112,-0.1105,-0.1081,-0.1022,-0.0978,-0.0975,-0.0906,-0.0897,-0.0904,-0.0879,-0.0896,-0.0924,-0.093,-0.0941,-0.0998,-0.0998,-0.1009,-0.107,-0.1093,-0.1103,-0.1112,-0.1134,-0.1144,-0.1024,-0.1024,-0.1024,0,-0.1174,-0.1147,-0.11,-0.1094,-0.1082,-0.1006,-0.1007,-0.0985,-0.0936,-0.0949,-0.0928,-0.0954,-0.0952,-0.1008,-0.1021,-0.1017,-0.1032,-0.1038,-0.1104,-0.1113,-0.112,-0.1141,-0.1151,-0.1028,-0.1028,-0.1027,-0.1027,0,-0.1189,-0.1185,-0.1186,-0.1151,-0.1144,-0.1129,-0.1089,-0.1088,-0.1064,-0.104,-0.1079,-0.1063,-0.1084,-0.1087,-0.1076,-0.1136,-0.113,-0.1103,-0.1083,-0.1137,-0.1155,-0.1164,-0.1034,-0.1033,-0.1031,-0.103,0,0,-0.12,-0.1196,-0.1198,-0.1203,-0.1174,-0.1159,-0.1183,-0.1174,-0.1198,-0.1172,-0.1211,-0.1223,-0.1206,-0.1216,-0.1201,-0.1218,-0.1277,-0.1196,-0.1195,-0.1223,-0.1343,-0.1222,-0.122,-0.1272,-0.1274,-0.1275,-0.1338,0,-0.1218,-0.1232,-0.123,-0.1251,-0.125,-0.1238,-0.1271,-0.1269,-0.1268,-0.1291,-0.1281,-0.1309,-0.1261,-0.128,-0.1291,-0.1272,-0.1305,-0.1263,-0.1283,-0.1284,-0.1173,-0.1227,-0.1281,-0.1345,-0.1347,-0.1348,-0.135,0,-0.1213,-0.1224,-0.1262,-0.1299,-0.1305,-0.1325,-0.137,-0.1385,-0.1414,-0.143,-0.1452,-0.1433,-0.1454,-0.14,-0.1415,-0.1397,-0.1388,-0.1368,-0.137,-0.1235,-0.1179,-0.1277,-0.1366,-0.1364,-0.1363,-0.1362,-0.1361,0,-0.1203,-0.124,-0.1277,-0.1288,-0.1325,-0.1368,-0.1388,-0.143,-0.1453,-0.1513,-0.1536,-0.1559,-0.1557,-0.1554,-0.149,-0.1476,-0.1494,-0.1467,-0.1358,-0.135,-0.1406,-0.1396,-0.1503,-0.1502,-0.1502,-0.1502,-0.1502,0,-0.1185,-0.1208,-0.1284,-0.1297,-0.1351,-0.1391,-0.1453,-0.1486,-0.1544,-0.1558,-0.16,-0.1601,-0.1596,-0.1581,-0.1543,-0.1463,-0.154,-0.1379,-0.1359,-0.1437,-0.143,-0.1413,-0.1402,-0.1504,-0.1504,-0.1503,-0.1503,0,-0.1122,-0.1182,-0.1221,-0.1307,-0.1336,-0.1372,-0.1451,-0.1477,-0.1567,-0.1586,-0.1605,-0.1643,-0.1618,-0.1599,-0.1582,-0.1507,-0.1462,-0.1424,-0.1521,-0.1502,-0.13,-0.1292,-0.1327,-0.1323,-0.132,-0.1317,-0.1315,0,-0.1067,-0.1088,-0.1206,-0.1234,-0.1269,-0.1335,-0.1359,-0.1459,-0.1473,-0.157,-0.1549,-0.1585,-0.1579,-0.1469,-0.1475,-0.1428,-0.1393,-0.139,-0.1335,-0.1306,-0.1284,-0.1281,-0.1277,-0.131,-0.1309,-0.1308,-0.1308,0,-0.0946,-0.1022,-0.1063,-0.1143,-0.1189,-0.1226,-0.1272,-0.1289,-0.1379,-0.1475,-0.1447,-0.1435,-0.141,-0.1376,-0.1353,-0.1311,-0.14,-0.1357,-0.1363,-0.1311,-0.1286,-0.1266,-0.1266,-0.1297,-0.1298,-0.1299,-0.13,0,-0.085,-0.0863,-0.0956,-0.1013,-0.1076,-0.1091,-0.1144,-0.1152,-0.1195,-0.1303,-0.1282,-0.1322,-0.1374,-0.1316,-0.1286,-0.1242,-0.1215,-0.1171,-0.1187,-0.1199,-0.1122,-0.1069,-0.1006,0,0,0,0,0,-0.0732,-0.0752,-0.0802,-0.0879,-0.0948,-0.0986,-0.1059,-0.1116,-0.1215,-0.1145,-0.1215,-0.118,-0.1151,-0.1183,-0.1105,-0.1232,-0.1226,-0.1139,-0.1186,-0.1236,-0.1249,-0.1165,0,0,0,0,0,0,-0.0663,-0.0702,-0.0756,-0.076,-0.0784,-0.0835,-0.0881,-0.0952,-0.0931,-0.1035,-0.1017,-0.1094,-0.1077,-0.1156,-0.1072,-0.108,-0.1082,-0.1172,-0.1169,-0.1229,-0.124,-0.125,-0.1169,0,0,0,0,0]},{"header":{"parameterUnit":"m.s-1","parameterCategory":2,"la1":30.2991,"la2":30.254,"lo1":-89.0895,"lo2":-89.0444,"dy":0.0017,"dx":0.0017,"nx":28,"ny":28,"refTime":"2024-03-12T09:00:00:Z","depth":"4","parameterNumber":3,"parameterNumberName":"V-component_of_CURRENTS"},"data":[0,0,0,0,0,0,0,0,0,0,0,0,0,0,0,0,0,0,0,0,0,0,0,0,0,0,0,0,0,0,0,0,0,0,0,0,0,0,0,0,0,0,0,0,0,0,0,0,0,0,0,0,0,0,0,0,0,0,-0.0141,-0.0142,0,-0.0172,-0.0172,-0.0173,-0.0169,-0.0168,-0.0167,-0.0167,-0.0145,-0.0145,-0.0145,0,0,0,0,0,0,0,0,0,0,0,0,0,-0.0118,-0.0118,-0.0141,-0.0142,-0.0142,-0.0172,-0.0172,-0.0173,-0.0169,-0.0168,-0.0167,-0.0167,-0.0145,-0.0145,-0.0145,0,0,0,0,0,0,0,0,0,0,0,0,0,-0.0137,-0.0118,-0.0141,-0.0143,-0.0143,-0.0172,-0.0172,-0.0173,-0.0169,-0.0168,-0.0167,-0.0166,-0.0145,-0.0145,-0.0145,-0.0162,0,0,-0.0145,-0.0145,0,0,0,0,0,0,0,0,-0.0136,-0.0138,-0.0142,-0.0143,-0.0143,-0.0165,-0.0156,-0.0167,-0.0169,-0.016,-0.0167,-0.0166,-0.0147,-0.0146,-0.0156,-0.0161,-0.016,-0.0145,-0.0144,-0.0144,-0.0144,0,0,0,0,0,0,0,-0.0135,-0.0137,-0.0154,-0.0143,-0.0143,-0.0155,-0.0157,-0.0159,-0.0158,-0.0161,-0.016,-0.0162,-0.0146,-0.0156,-0.0155,-0.016,-0.0145,-0.0144,-0.0144,-0.0144,-0.0167,-0.0168,0,0,0,0,0,0,-0.0128,-0.0136,-0.0153,-0.0155,-0.0136,-0.0156,-0.0158,-0.0159,-0.0159,-0.0158,-0.0163,-0.0162,-0.0157,-0.0156,-0.0155,-0.0156,-0.0144,-0.0144,-0.0144,-0.0167,-0.0168,-0.0168,0,0,0,0,0,0,-0.0127,-0.0129,-0.0152,-0.0145,-0.0149,-0.0157,-0.0159,-0.0161,-0.0166,-0.0161,-0.0159,-0.0166,-0.0156,-0.0155,-0.0154,-0.0155,-0.0144,-0.0144,-0.0166,-0.0167,-0.0168,-0.0171,0,0,0,0,0,0,-0.0127,-0.0129,-0.0139,-0.0145,-0.0149,-0.0172,-0.016,-0.0162,-0.0168,-0.0167,-0.0163,-0.0161,-0.0155,-0.0154,-0.0154,-0.0155,-0.0144,-0.0165,-0.0167,-0.0168,-0.017,-0.0172,-0.0173,0,0,0,0,0,-0.0126,-0.0141,-0.0139,-0.0142,-0.0159,-0.0173,-0.0177,-0.018,-0.0169,-0.018,-0.0171,-0.0161,-0.0162,-0.0155,-0.0154,-0.0155,-0.0165,-0.0166,-0.0168,-0.0169,-0.0171,-0.0173,0,0,0,0,0,0,-0.0141,-0.0142,-0.014,-0.0156,-0.0165,-0.0172,-0.0186,-0.0181,-0.0185,-0.018,-0.0168,-0.0166,-0.0169,-0.0166,-0.0158,-0.0168,-0.0162,-0.0164,-0.0163,-0.0165,-0.0167,-0.0167,-0.0144,0,0,0,0,0,-0.0148,-0.0157,-0.0159,-0.0174,-0.0177,-0.0181,-0.0189,-0.0187,-0.0187,-0.0188,-0.0183,-0.0178,-0.0178,-0.0173,-0.0178,-0.018,-0.0157,-0.0182,-0.0183,-0.0185,-0.0185,-0.0158,-0.0156,-0.0173,-0.0173,-0.0173,0,0,-0.0159,-0.0161,-0.0167,-0.0178,-0.0184,-0.0198,-0.0184,-0.0195,-0.0204,-0.0184,-0.0196,-0.0187,-0.0183,-0.0187,-0.0187,-0.018,-0.0166,-0.0186,-0.0187,-0.0188,-0.0159,-0.0157,-0.0155,-0.0174,-0.0174,-0.0174,0,0,-0.0187,-0.0185,-0.0203,-0.0207,-0.0215,-0.0215,-0.0216,-0.022,-0.022,-0.023,-0.0215,-0.0205,-0.0212,-0.0201,-0.0198,-0.0213,-0.0181,-0.0215,-0.0214,-0.0188,-0.0185,-0.0183,-0.0138,-0.0131,-0.0209,-0.0209,-0.0209,0,-0.0202,-0.0223,-0.0213,-0.0229,-0.0236,-0.0221,-0.024,-0.0242,-0.0244,-0.0241,-0.0236,-0.0227,-0.0221,-0.021,-0.0213,-0.0215,-0.0187,-0.0203,-0.0188,-0.0185,-0.0183,-0.0137,-0.013,-0.0209,-0.0209,-0.0209,-0.0209,0,-0.0241,-0.0258,-0.0268,-0.028,-0.0284,-0.0298,-0.029,-0.0292,-0.0284,-0.0279,-0.027,-0.0255,-0.0245,-0.024,-0.0231,-0.0211,-0.0191,-0.0196,-0.0177,-0.0181,-0.0132,-0.0125,-0.021,-0.021,-0.021,-0.021,0,0,-0.0276,-0.0294,-0.0299,-0.0313,-0.031,-0.032,-0.0323,-0.0325,-0.0322,-0.0313,-0.0306,-0.0294,-0.0268,-0.0263,-0.0239,-0.0209,-0.0164,-0.0193,-0.0191,-0.0138,-0.0083,-0.0068,-0.0058,-0.0159,-0.0159,-0.0158,-0.0049,0,-0.0315,-0.0358,-0.0351,-0.0385,-0.0404,-0.038,-0.0384,-0.0374,-0.0359,-0.0348,-0.0313,-0.0304,-0.0281,-0.0267,-0.0234,-0.019,-0.0147,-0.0192,-0.0096,-0.0093,-0.0072,-0.0051,-0.0156,-0.0043,-0.0042,-0.004,-0.0039,0,-0.0359,-0.038,-0.0426,-0.0435,-0.0439,-0.0455,-0.0445,-0.0445,-0.0411,-0.039,-0.0355,-0.0327,-0.0281,-0.0266,-0.0172,-0.0199,-0.0141,-0.0099,-0.0094,-0.0076,-0.0065,-0.0044,-0.0026,-0.0027,-0.0028,-0.0029,-0.003,0,-0.0399,-0.0431,-0.0472,-0.0478,-0.0485,-0.0497,-0.0495,-0.0465,-0.0456,-0.0415,-0.0393,-0.0336,-0.0298,-0.0233,-0.0142,-0.0156,-0.0029,-0.0042,0.0034,0.0037,-0.0007,-0.0011,0.0031,0.0031,0.003,0.003,0.003,0,-0.0444,-0.0474,-0.05,-0.0524,-0.0559,-0.054,-0.0557,-0.0537,-0.0497,-0.0474,-0.042,-0.0374,-0.0288,-0.0206,-0.0136,-0.0019,-0.0021,0.0044,0.0065,-0.001,-0.0015,-0.0,-0.0005,0.0034,0.0033,0.0033,0.0032,0,-0.0481,-0.0503,-0.0551,-0.0576,-0.0587,-0.0611,-0.0605,-0.0601,-0.0554,-0.0519,-0.0504,-0.0396,-0.028,-0.0182,-0.0054,-0.0002,0.0095,0.0141,0.0078,0.0091,0.0144,0.0137,0.0227,0.0229,0.023,0.0231,0.0232,0,-0.0502,-0.0536,-0.0595,-0.0625,-0.0646,-0.067,-0.0678,-0.0641,-0.062,-0.0523,-0.05,-0.0379,-0.0299,-0.009,0.0002,0.015,0.0165,0.0216,0.0157,0.0153,0.0164,0.0155,0.0147,0.0234,0.0234,0.0234,0.0235,0,-0.0532,-0.0564,-0.0603,-0.0667,-0.0703,-0.0726,-0.0729,-0.0711,-0.0644,-0.061,-0.047,-0.0354,-0.0208,-0.0067,0.0062,0.0158,0.0172,0.0228,0.0225,0.0171,0.0162,0.0169,0.016,0.0239,0.0238,0.0238,0.0237,0,-0.0546,-0.0582,-0.0638,-0.0691,-0.0738,-0.0753,-0.0755,-0.0699,-0.0662,-0.0543,-0.0494,-0.0331,-0.0231,-0.0059,0.0051,0.0154,0.0163,0.0172,0.0172,0.0169,0.0107,0.0083,0.0164,0,0,0,0,0,-0.0547,-0.0588,-0.0646,-0.0703,-0.075,-0.0771,-0.0768,-0.075,-0.0689,-0.059,-0.0533,-0.039,-0.0184,-0.0089,0.0018,0.004,0.0154,0.0165,0.0157,0.0262,0.0257,0.0193,0,0,0,0,0,0,-0.0548,-0.0604,-0.0642,-0.0696,-0.0732,-0.0768,-0.0765,-0.0729,-0.0656,-0.058,-0.0464,-0.0383,-0.0186,-0.0245,0.0015,0.0047,0.0052,0.0266,0.0267,0.0264,0.026,0.0256,0.0189,0,0,0,0,0]}]]